FW6583 Weather Reports


Display with metric or nautical units.
time (UTC)temp
F
wind
direction
speed
MPH
gust
MPH
rain 1hr
in
rain 24hr
in
rain mn
in
humidity
%
barometer
mb
20260902204557 89 318 0.0 2.0 0.00 0.00 0.00 69 1020.9
20260902204025 89 0 0.0 2.0 0.00 0.00 0.00 69 1020.8
20260902203526 89 78 1.0 2.0 0.00 0.00 0.00 68 1020.9
20260902203055 90 332 1.0 2.0 0.00 0.00 0.00 68 1020.8
20260902202526 90 330 1.0 3.0 0.00 0.00 0.00 67 1020.8
20260902202025 90 0 0.0 3.0 0.00 0.00 0.00 66 1020.8
20260902201557 90 285 2.0 3.0 0.00 0.00 0.00 66 1020.9
20260902201025 90 125 0.0 3.0 0.00 0.00 0.00 67 1021.0
20260902200524 90 265 1.0 3.0 0.00 0.00 0.00 68 1021.2
20260902200100 90 335 1.0 3.0 0.00 0.00 0.00 68 1021.3
20260902195528 90 96 1.0 3.0 0.00 0.00 0.00 69 1021.4
20260902195027 90 0 1.0 4.0 0.00 0.00 0.00 69 1021.4
20260902194555 89 46 0.0 4.0 0.00 0.00 0.00 69 1021.4
20260902194028 89 94 2.0 4.0 0.00 0.00 0.00 68 1021.4
20260902193528 90 84 0.0 2.0 0.00 0.00 0.00 67 1021.6
20260902193104 90 237 1.0 2.0 0.00 0.00 0.00 68 1021.6
20260902192528 90 30 1.0 3.0 0.00 0.00 0.00 66 1021.5
20260902192026 90 125 1.0 3.0 0.00 0.00 0.00 68 1021.6
20260902191559 90 248 1.0 2.0 0.00 0.00 0.00 68 1021.7
20260902191027 90 210 0.0 3.0 0.00 0.00 0.00 67 1021.7
20260902190525 90 302 1.0 3.0 0.00 0.00 0.00 68 1021.8
20260902190101 89 56 1.0 3.0 0.00 0.00 0.00 68 1021.9
20260902185526 89 33 1.0 3.0 0.00 0.00 0.00 69 1021.8
20260902185026 89 360 1.0 3.0 0.00 0.00 0.00 68 1021.8
20260902184559 89 309 1.0 3.0 0.00 0.00 0.00 67 1022.0
20260902184027 89 60 0.0 2.0 0.00 0.00 0.00 70 1022.0
20260902183525 89 3 1.0 2.0 0.00 0.00 0.00 70 1022.2
20260902183119 89 245 0.0 2.0 0.00 0.00 0.00 71 1022.2
20260902182526 89 31 0.0 4.0 0.00 0.00 0.00 69 1022.2
20260902182027 89 35 1.0 4.0 0.00 0.00 0.00 70 1022.2
20260902181555 89 0 1.0 4.0 0.00 0.00 0.00 70 1022.2
20260902181028 89 356 0.0 2.0 0.00 0.00 0.00 70 1022.3
20260902180525 88 37 1.0 3.0 0.00 0.00 0.00 70 1022.3
20260902175525 88 311 1.0 3.0 0.00 0.00 0.00 71 1022.2
20260902175026 88 348 0.0 2.0 0.00 0.00 0.00 72 1022.3
20260902174555 88 2 0.0 2.0 0.00 0.00 0.00 72 1022.4
20260902174026 87 46 0.0 1.0 0.00 0.00 0.00 74 1022.6
20260902173525 86 0 0.0 1.0 0.00 0.00 0.00 74 1022.6
20260902173047 86 0 0.0 2.0 0.00 0.00 0.00 75 1022.6
20260902172525 86 233 0.0 2.0 0.00 0.00 0.00 76 1022.8
20260902172029 86 0 0.0 2.0 0.00 0.00 0.00 74 1022.8
20260902171617 86 0 0.0 2.0 0.00 0.00 0.00 74 1022.8
20260902171029 86 1 1.0 2.0 0.00 0.00 0.00 76 1022.9
20260902170526 85 107 1.0 2.0 0.00 0.00 0.00 75 1022.9
20260902165525 85 46 0.0 4.0 0.00 0.00 0.00 76 1022.9
20260902165024 85 303 0.0 4.0 0.00 0.00 0.00 77 1023.0
20260902164552 85 31 1.0 4.0 0.00 0.00 0.00 77 1023.1
20260902164026 84 56 0.0 1.0 0.00 0.00 0.00 79 1023.0
20260902163526 84 148 0.0 1.0 0.00 0.00 0.00 79 1023.0
20260902163058 84 205 0.0 3.0 0.00 0.00 0.00 79 1023.1
20260902162527 84 39 1.0 3.0 0.00 0.00 0.00 78 1023.2
20260902162024 84 238 0.0 3.0 0.00 0.00 0.00 80 1023.2
20260902161547 83 47 0.0 3.0 0.00 0.00 0.00 80 1023.3
20260902161026 83 14 0.0 2.0 0.00 0.00 0.00 80 1023.2
20260902160530 83 123 0.0 2.0 0.00 0.00 0.00 81 1023.3
20260902155525 82 0 0.0 3.0 0.00 0.00 0.00 81 1023.2
20260902155029 82 0 1.0 3.0 0.00 0.00 0.00 80 1023.5
20260902154552 82 77 0.0 2.0 0.00 0.00 0.00 83 1023.5
20260902154023 81 0 0.0 2.0 0.00 0.00 0.00 83 1023.4
20260902153526 81 0 0.0 2.0 0.00 0.00 0.00 83 1023.5
20260902153052 81 54 0.0 2.0 0.00 0.00 0.00 83 1023.3
20260902152526 81 39 0.0 2.0 0.00 0.00 0.00 84 1023.4
20260902152024 81 41 0.0 2.0 0.00 0.00 0.00 84 1023.4
20260902151546 80 352 0.0 3.0 0.00 0.00 0.00 86 1023.5
20260902151024 80 255 0.0 3.0 0.00 0.00 0.00 86 1023.4
20260902150525 80 101 0.0 3.0 0.00 0.00 0.00 86 1023.5
20260902150059 79 0 0.0 2.0 0.00 0.00 0.00 87 1023.4
20260902145524 79 0 0.0 2.0 0.00 0.00 0.00 87 1023.4
20260902145023 79 0 0.0 2.0 0.00 0.00 0.00 87 1023.5
20260902144548 78 261 0.0 2.0 0.00 0.00 0.00 88 1023.3
20260902144023 78 0 0.0 2.0 0.00 0.00 0.00 89 1023.2
20260902143523 78 0 0.0 1.0 0.00 0.00 0.00 90 1023.2
20260902143046 77 0 0.0 1.0 0.00 0.00 0.00 90 1023.3
20260902142524 77 0 0.0 1.0 0.00 0.00 0.00 90 1023.2
20260902142026 77 0 0.0 1.0 0.00 0.00 0.00 90 1023.1
20260902141546 77 0 0.0 2.0 0.00 0.00 0.00 90 1023.2
20260902141027 77 0 0.0 2.0 0.00 0.00 0.00 90 1023.2
20260902140526 76 0 0.0 1.0 0.00 0.00 0.00 91 1023.1
20260902140057 76 0 0.0 1.0 0.00 0.00 0.00 91 1023.1
20260902135523 76 0 0.0 1.0 0.00 0.00 0.00 91 1023.1
20260902135025 76 65 0.0 2.0 0.00 0.00 0.00 91 1023.2
20260902134555 76 84 0.0 2.0 0.00 0.00 0.00 91 1023.3
20260902134025 75 0 0.0 1.0 0.00 0.00 0.00 92 1023.4
20260902133526 75 0 0.0 1.0 0.00 0.00 0.00 92 1023.4
20260902133044 75 0 0.0 1.0 0.00 0.00 0.00 93 1023.4
20260902132528 75 0 0.0 1.0 0.00 0.00 0.00 93 1023.4
20260902132027 74 0 0.0 0.0 0.00 0.00 0.00 94 1023.2
20260902131546 74 0 0.0 0.0 0.00 0.00 0.00 95 1023.3
20260902131026 74 0 0.0 1.0 0.00 0.00 0.00 95 1023.3
20260902130524 73 0 0.0 1.0 0.00 0.00 0.00 96 1023.4
20260902130054 73 0 0.0 1.0 0.00 0.00 0.00 96 1023.3
20260902125527 73 0 0.0 0.0 0.00 0.00 0.00 96 1023.3
20260902125024 73 0 0.0 0.0 0.00 0.00 0.00 97 1023.2
20260902124550 72 0 0.0 0.0 0.00 0.00 0.00 97 1023.2
20260902124024 72 0 0.0 0.0 0.00 0.00 0.00 97 1023.2
20260902123523 72 0 0.0 0.0 0.00 0.00 0.00 97 1023.1
20260902123052 72 0 0.0 0.0 0.00 0.00 0.00 97 1023.0
20260902122527 72 0 0.0 0.0 0.00 0.00 0.00 97 1022.9
20260902122026 72 0 0.0 0.0 0.00 0.00 0.00 98 1022.7
20260902121545 72 0 0.0 0.0 0.00 0.00 0.00 98 1022.7
20260902121026 71 0 0.0 0.0 0.00 0.00 0.00 98 1022.7
20260902120525 71 0 0.0 0.0 0.00 0.00 0.00 98 1022.7
20260902120051 71 0 0.0 0.0 0.00 0.00 0.00 98 1022.7
20260902115524 71 0 0.0 0.0 0.00 0.00 0.00 98 1022.6
20260902115024 71 0 0.0 0.0 0.00 0.00 0.00 98 1022.6
20260902114551 71 0 0.0 0.0 0.00 0.00 0.00 98 1022.6
20260902114025 71 0 0.0 0.0 0.00 0.00 0.00 98 1022.6
20260902113524 71 0 0.0 0.0 0.00 0.00 0.00 98 1022.4
20260902113043 72 0 0.0 0.0 0.00 0.00 0.00 98 1022.4
20260902112525 71 0 0.0 0.0 0.00 0.00 0.00 98 1022.3
20260902112024 71 0 0.0 0.0 0.00 0.00 0.00 98 1022.4
20260902111553 72 0 0.0 0.0 0.00 0.00 0.00 99 1022.4
20260902111026 71 0 0.0 0.0 0.00 0.00 0.00 99 1022.4
20260902110527 71 0 0.0 0.0 0.00 0.00 0.00 99 1022.5
20260902110050 71 0 0.0 0.0 0.00 0.00 0.00 99 1022.4
20260902105524 71 0 0.0 0.0 0.00 0.00 0.00 99 1022.4
20260902105024 71 0 0.0 0.0 0.00 0.00 0.00 99 1022.3
20260902104546 71 0 0.0 0.0 0.00 0.00 0.00 99 1022.4
20260902104027 71 0 0.0 0.0 0.00 0.00 0.00 99 1022.5
20260902103524 71 0 0.0 0.0 0.00 0.00 0.00 99 1022.4
20260902103056 71 0 0.0 0.0 0.00 0.00 0.00 99 1022.6
20260902102528 71 0 0.0 0.0 0.00 0.00 0.00 99 1022.6
20260902102025 71 0 0.0 0.0 0.00 0.00 0.00 99 1022.6
20260902101550 71 0 0.0 0.0 0.00 0.00 0.00 99 1022.4
20260902101024 71 0 0.0 0.0 0.00 0.00 0.00 99 1022.6
20260902100525 71 0 0.0 0.0 0.00 0.00 0.00 99 1022.6
20260902100050 71 0 0.0 0.0 0.00 0.00 0.00 99 1022.6
20260902095526 71 0 0.0 0.0 0.00 0.00 0.00 99 1022.7
20260902095024 71 0 0.0 0.0 0.00 0.00 0.00 98 1022.8
20260902094550 71 0 0.0 0.0 0.00 0.00 0.00 98 1022.7
20260902094024 71 0 0.0 0.0 0.00 0.00 0.00 98 1022.7
20260902093524 71 0 0.0 0.0 0.00 0.00 0.00 98 1022.7
20260902093100 71 0 0.0 0.0 0.00 0.00 0.00 98 1022.8
20260902092524 71 0 0.0 0.0 0.00 0.00 0.00 98 1022.7
20260902092026 71 0 0.0 0.0 0.00 0.00 0.00 99 1022.9
20260902091549 71 0 0.0 0.0 0.00 0.00 0.00 99 1022.6
20260902091024 71 0 0.0 0.0 0.00 0.00 0.00 99 1022.6
20260902090527 71 0 0.0 0.0 0.00 0.00 0.00 99 1022.6
20260902090050 71 0 0.0 0.0 0.00 0.00 0.00 99 1022.5
20260902085524 71 0 0.0 0.0 0.00 0.00 0.00 99 1022.6
20260902085024 71 0 0.0 0.0 0.00 0.00 0.00 99 1022.6
20260902084558 71 0 0.0 0.0 0.00 0.00 0.00 98 1022.6
20260902084026 71 0 0.0 0.0 0.00 0.00 0.00 99 1022.5
20260902083528 71 0 0.0 0.0 0.00 0.00 0.00 99 1022.5
20260902083050 71 0 0.0 0.0 0.00 0.00 0.00 98 1022.5
20260902082527 71 0 0.0 0.0 0.00 0.00 0.00 98 1022.4
20260902082026 71 0 0.0 0.0 0.00 0.00 0.00 98 1022.4
20260902081552 71 0 0.0 0.0 0.00 0.00 0.00 98 1022.4
20260902081027 71 0 0.0 0.0 0.00 0.00 0.00 98 1022.4
20260902080527 71 0 0.0 0.0 0.00 0.00 0.00 98 1022.3
20260902080045 71 0 0.0 0.0 0.00 0.00 0.00 98 1022.2
20260902075524 71 0 0.0 0.0 0.00 0.00 0.00 98 1022.2
20260902075024 71 0 0.0 0.0 0.00 0.00 0.00 98 1022.1
20260902074603 71 0 0.0 0.0 0.00 0.00 0.00 98 1022.2
20260902074024 71 0 0.0 0.0 0.00 0.00 0.00 98 1022.2
20260902073524 71 0 0.0 0.0 0.00 0.00 0.00 98 1022.2
20260902073056 71 0 0.0 0.0 0.00 0.00 0.00 98 1022.2
20260902072527 71 0 0.0 0.0 0.00 0.00 0.00 98 1022.3
20260902072024 71 0 0.0 0.0 0.00 0.00 0.00 98 1022.3
20260902071549 71 0 0.0 0.0 0.00 0.00 0.00 98 1022.4
20260902071028 70 0 0.0 0.0 0.00 0.00 0.00 98 1022.3
20260902070525 70 0 0.0 0.0 0.00 0.00 0.00 98 1022.3
20260902070052 70 0 0.0 0.0 0.00 0.00 0.00 98 1022.4
20260902065526 71 0 0.0 0.0 0.00 0.01 0.00 98 1022.4
20260902065026 71 0 0.0 0.0 0.00 0.01 0.00 98 1022.4
20260902064547 71 0 0.0 0.0 0.00 0.01 0.00 98 1022.4
20260902064023 71 0 0.0 0.0 0.00 0.01 0.00 98 1022.2
20260902063525 71 0 0.0 0.0 0.00 0.01 0.00 98 1022.4
20260902063050 71 0 0.0 0.0 0.00 0.01 0.00 98 1022.3
20260902062528 71 0 0.0 0.0 0.00 0.01 0.00 98 1022.2
20260902062027 71 0 0.0 0.0 0.00 0.01 0.00 98 1022.3
20260902061600 71 0 0.0 0.0 0.00 0.01 0.00 98 1022.4
20260902061026 71 0 0.0 0.0 0.00 0.01 0.00 98 1022.3
20260902060526 71 0 0.0 0.0 0.00 0.01 0.00 98 1022.4
20260902060057 72 0 0.0 0.0 0.00 0.01 0.00 97 1022.4
20260902055526 72 0 0.0 0.0 0.00 0.01 0.00 98 1022.2
20260902055025 72 0 0.0 0.0 0.00 0.01 0.00 98 1022.3
20260902054606 72 0 0.0 0.0 0.00 0.01 0.00 98 1022.3
20260902054025 72 0 0.0 0.0 0.00 0.01 0.00 98 1022.3
20260902053524 72 0 0.0 0.0 0.00 0.01 0.00 98 1022.3
20260902053105 72 0 0.0 0.0 0.00 0.01 0.00 98 1022.2
20260902052528 72 0 0.0 0.0 0.00 0.01 0.00 97 1022.3
20260902052023 72 0 0.0 0.0 0.00 0.01 0.00 97 1022.2
20260902051551 72 0 0.0 0.0 0.00 0.01 0.00 97 1022.2
20260902051028 72 0 0.0 0.0 0.00 0.01 0.00 97 1022.2
20260902050527 72 0 0.0 0.0 0.00 0.01 0.00 97 1022.1
20260902050049 72 0 0.0 0.0 0.00 0.01 0.00 97 1022.0
20260902045527 72 0 0.0 0.0 0.00 0.01 0.00 97 1022.0
20260902045024 72 0 0.0 0.0 0.00 0.01 0.00 97 1022.0
20260902044551 72 0 0.0 0.0 0.00 0.01 0.00 97 1022.0
20260902044026 72 0 0.0 0.0 0.00 0.01 0.00 97 1021.8
20260902043523 72 0 0.0 0.0 0.00 0.01 0.00 97 1021.8
20260902043108 72 0 0.0 0.0 0.00 0.01 0.00 97 1021.7
20260902042524 72 0 0.0 0.0 0.00 0.01 0.00 97 1021.8
20260902042027 72 0 0.0 0.0 0.00 0.01 0.00 97 1021.7
20260902041551 72 0 0.0 0.0 0.00 0.01 0.00 97 1021.4
20260902041025 72 0 0.0 0.0 0.00 0.01 0.00 96 1021.6
20260902040524 72 0 0.0 0.0 0.00 0.01 0.00 96 1021.5
20260902040053 72 0 0.0 0.0 0.00 0.01 0.00 96 1021.5
20260902035526 72 0 0.0 0.0 0.00 0.01 0.01 96 1021.5
20260902035027 72 0 0.0 0.0 0.00 0.01 0.01 96 1021.4
20260902034546 72 0 0.0 0.0 0.00 0.01 0.01 96 1021.5
20260902034029 72 0 0.0 0.0 0.00 0.01 0.01 96 1021.5
20260902033525 72 0 0.0 0.0 0.00 0.01 0.01 96 1021.5
20260902033057 72 0 0.0 0.0 0.00 0.01 0.01 95 1021.5
20260902032524 72 0 0.0 0.0 0.00 0.01 0.01 95 1021.5
20260902032025 72 0 0.0 0.0 0.00 0.01 0.01 95 1021.6
20260902031553 73 0 0.0 0.0 0.00 0.01 0.01 95 1021.6
20260902031026 73 0 0.0 0.0 0.00 0.01 0.01 95 1021.6
20260902030526 73 0 0.0 0.0 0.00 0.01 0.01 95 1021.7
20260902030045 73 0 0.0 0.0 0.00 0.01 0.01 94 1021.8
20260902025527 73 0 0.0 0.0 0.00 0.01 0.01 95 1021.8
20260902025027 73 0 0.0 0.0 0.00 0.01 0.01 94 1021.7
20260902024546 73 0 0.0 0.0 0.00 0.01 0.01 94 1021.8
20260902024026 73 0 0.0 0.0 0.00 0.01 0.01 94 1021.9
20260902023527 73 0 0.0 0.0 0.00 0.01 0.01 95 1021.8
20260902023107 73 0 0.0 0.0 0.00 0.01 0.01 94 1021.8
20260902022527 73 0 0.0 0.0 0.00 0.01 0.01 94 1021.8
20260902022027 73 0 0.0 0.0 0.00 0.01 0.01 93 1021.8
20260902021546 73 0 0.0 0.0 0.00 0.01 0.01 93 1021.9
20260902021026 74 0 0.0 0.0 0.00 0.01 0.01 93 1021.9
20260902020527 74 0 0.0 0.0 0.00 0.01 0.01 93 1021.9
20260902020047 74 0 0.0 0.0 0.00 0.01 0.01 93 1021.9
20260902015529 74 0 0.0 0.0 0.00 0.01 0.01 93 1021.7
20260902015027 74 0 0.0 0.0 0.00 0.01 0.01 92 1021.8
20260902014553 74 0 0.0 0.0 0.00 0.01 0.01 92 1021.9
20260902014029 74 0 0.0 0.0 0.00 0.01 0.01 92 1021.8
20260902013525 74 0 0.0 0.0 0.00 0.01 0.01 92 1021.7
20260902013056 74 0 0.0 0.0 0.00 0.01 0.01 91 1021.8
20260902012525 74 0 0.0 0.0 0.00 0.01 0.01 91 1021.8
20260902012026 74 0 0.0 0.0 0.00 0.01 0.01 90 1021.8
20260902011546 75 0 0.0 0.0 0.00 0.01 0.01 90 1021.8
20260902011025 75 0 0.0 0.0 0.00 0.01 0.01 90 1021.9
20260902010525 75 0 0.0 0.0 0.00 0.01 0.01 90 1021.7
20260902010055 75 0 0.0 0.0 0.00 0.01 0.01 89 1021.7
20260902005525 75 0 0.0 0.0 0.00 0.01 0.01 88 1021.8
20260902005029 75 0 0.0 0.0 0.00 0.01 0.01 88 1021.8
20260902004556 75 0 0.0 0.0 0.00 0.01 0.01 88 1021.9
20260902004026 75 0 0.0 0.0 0.00 0.01 0.01 88 1021.9
20260902003529 75 0 0.0 1.0 0.00 0.01 0.01 88 1022.0
20260902003058 75 0 0.0 1.0 0.00 0.01 0.01 88 1022.0
20260902002524 76 135 0.0 1.0 0.00 0.01 0.01 87 1021.9
20260902002024 76 0 0.0 1.0 0.00 0.01 0.01 87 1021.9
20260902001602 76 138 0.0 1.0 0.00 0.01 0.01 87 1022.0
20260902001024 76 0 0.0 1.0 0.00 0.01 0.01 87 1021.9
20260902000527 76 0 0.0 1.0 0.00 0.01 0.01 86 1021.8
20260902000105 76 138 0.0 1.0 0.00 0.01 0.01 86 1021.8
20260901235525 76 0 0.0 1.0 0.00 0.01 0.01 86 1021.9
20260901235027 77 138 0.0 1.0 0.00 0.01 0.01 85 1021.9
20260901234554 77 138 0.0 1.0 0.00 0.01 0.01 84 1021.8
20260901234030 77 0 0.0 1.0 0.00 0.01 0.01 84 1021.9
20260901233526 77 0 0.0 1.0 0.00 0.01 0.01 84 1022.0
20260901233055 78 0 0.0 1.0 0.00 0.01 0.01 83 1022.0
20260901232526 78 147 0.0 1.0 0.00 0.01 0.01 83 1021.9
20260901232023 79 0 0.0 1.0 0.00 0.01 0.01 81 1021.8
20260901231556 79 0 0.0 1.0 0.00 0.01 0.01 81 1021.9
20260901231027 79 0 0.0 1.0 0.00 0.01 0.01 80 1021.9
20260901230527 80 0 0.0 1.0 0.00 0.01 0.01 80 1022.0
20260901230048 80 0 0.0 1.0 0.00 0.01 0.01 81 1022.0
20260901225524 80 0 0.0 1.0 0.00 0.10 0.01 80 1022.0
20260901225028 80 0 0.0 1.0 0.00 0.10 0.01 80 1022.1
20260901224548 80 0 0.0 1.0 0.00 0.10 0.01 80 1022.0
20260901224028 81 0 0.0 1.0 0.00 0.10 0.01 80 1022.0
20260901223528 81 0 0.0 1.0 0.00 0.10 0.01 80 1021.9
20260901223052 81 0 0.0 1.0 0.00 0.10 0.01 79 1022.0
20260901222529 81 0 0.0 1.0 0.00 0.10 0.01 79 1021.9
20260901222026 81 0 0.0 2.0 0.00 0.10 0.01 79 1021.9
20260901221558 81 44 1.0 2.0 0.00 0.10 0.01 80 1022.0
20260901221027 81 290 0.0 1.0 0.00 0.10 0.01 81 1021.9
20260901220528 81 0 0.0 1.0 0.00 0.10 0.01 81 1021.9
20260901220053 81 0 0.0 1.0 0.00 0.10 0.01 81 1021.8
20260901215527 81 0 0.0 1.0 0.00 0.10 0.01 81 1021.9
20260901215029 81 13 0.0 1.0 0.00 0.10 0.01 80 1021.8
20260901214552 81 0 0.0 1.0 0.00 0.10 0.01 80 1021.7
20260901214028 81 0 0.0 1.0 0.00 0.10 0.01 80 1021.6
20260901213526 81 0 0.0 1.0 0.00 0.10 0.01 79 1021.5
20260901213052 81 12 0.0 1.0 0.00 0.10 0.01 80 1021.5
20260901212528 80 20 0.0 1.0 0.00 0.10 0.01 80 1021.6
20260901212029 80 0 0.0 1.0 0.00 0.10 0.01 79 1021.5
20260901211545 80 0 0.0 1.0 0.00 0.10 0.01 79 1021.6
20260901211026 80 243 0.0 1.0 0.00 0.10 0.01 80 1021.6
20260901210528 80 0 0.0 1.0 0.00 0.10 0.01 82 1021.6
20260901210058 80 255 0.0 3.0 0.00 0.10 0.01 81 1021.6
20260901205528 80 0 0.0 3.0 0.00 0.10 0.01 82 1021.7
20260901205030 80 0 0.0 3.0 0.00 0.10 0.01 82 1021.7